Regional Weather Roundup
Issued by NWS

Home | Current Version | Previous Version | Graphics & Text | Print | Product List | Glossary On
Versions: 1 2 3 4 5 6 7 8 9 10 11 12 13 14 15 16 17 18 19 20 21 22 23 24 25 26 27 28 29 30 31 32 33 34 35 36 37 38 39 40 41 42 43 44 45 46 47 48 49 50
000
ASUS43 KLMK 191202
RWRKY
KENTUCKY REGIONAL WEATHER ROUNDUP
NATIONAL WEATHER SERVICE LOUISVILLE KY
700 AM EST SUN FEB 19 2017

NOTE "FAIR" INDICATES FEW OR NO CLOUDS BELOW 12,000 FEET
WITH NO SIGNIFICANT WEATHER AND/OR OBSTRUCTIONS TO VISIBILITY.

KYZ001>023-026-027-061>063-070>075-191300-
WESTERN AND SOUTH CENTRAL KENTUCKY

CITY           SKY/WX    TMP DP  RH WIND       PRES   REMARKS
PADUCAH        FOG       44  43  96 CALM      30.01R VSB 1/4
HENDERSON      CLOUDY    48  45  87 CALM      30.02R VSB 1/2
OWENSBORO      FOG       48  48 100 CALM      30.04R VSB 3/4
HOPKINSVILLE   CLOUDY    45  45 100 CALM      30.02R FOG
BOWLING GREEN  CLOUDY    47  45  93 CALM      30.05R FOG
GLASGOW        NOT AVBL
$$

KYZ024-025-028>034-038-045-046-053-191300-
NORTH CENTRAL KENTUCKY

CITY           SKY/WX    TMP DP  RH WIND       PRES   REMARKS
LOUISVILLE/SDF CLOUDY    51  48  89 CALM      30.04R FOG
LOUISVILLE/LOU CLOUDY    51  47  86 CALM      30.04R FOG
FORT KNOX      CLOUDY    49  49 100 S3        30.02S FOG
$$

KYZ035>037-039>044-047>052-055>060-089>105-191300-
NORTHEAST KENTUCKY

CITY           SKY/WX    TMP DP  RH WIND       PRES   REMARKS
LEXINGTON      CLOUDY    48  45  89 W7        30.05R
COVINGTON      CLOUDY    48  46  93 W6        30.01S
FRANKFORT      CLOUDY    49  45  86 SW3       30.03R
$$

KYZ054-064>069-076>088-106>120-191300-
SOUTHEAST KENTUCKY

CITY           SKY/WX    TMP DP  RH WIND       PRES   REMARKS
JACKSON        CLOUDY    47  44  90 CALM      30.04R
LONDON         CLOUDY    46  44  93 CALM      30.05R FOG
SOMERSET       CLOUDY    43  43 100 CALM      30.07R FOG
MIDDLESBORO    DRIZZLE   47  47 100 CALM      30.06R
MONTICELLO     CLOUDY    47  46  97 NE8       30.06S
$$





USA.gov is the U.S. government's official web portal to all federal, state and local government web resources and services.